When you browse on this site, cookies collect data to enhance your experience and personalize the content and advertising you see.
Visit our Privacy Policy to learn more. By continuing to use the site, you agree to this use of cookies and data.
  • In Spain
  • List of Countries
  • For 7 days
  • Water Temperature
  • Satellite Maps
  • Weather Map
  • Weather Widgets
  • user-avatar
    Login

    Hourly Weather Campobasso

    Today, 25 June, Tuesday

    Time Temperature Precipitation Wind Pressure Humidity
    00:00 +18°C° 0 mm 1 mps 702 mmHg 84%
    01:00 +18°C° 0 mm 1 mps 702 mmHg 85%
    02:00 +18°C° 0 mm 1 mps 702 mmHg 82%
    03:00 +18°C° 0 mm 1 mps 702 mmHg 79%
    04:00 +16°C° 0 mm 1 mps 701 mmHg 76%
    05:00 +18°C° 0 mm 2 mps 702 mmHg 72%
    06:00 +20°C° 0 mm 2 mps 702 mmHg 68%
    07:00 +22°C° 0 mm 3 mps 703 mmHg 61%
    08:00 +24°C° 0 mm 3 mps 703 mmHg 59%
    09:00 +25°C° 0 mm 4 mps 704 mmHg 58%
    10:00 +26°C° 0 mm 5 mps 704 mmHg 56%
    11:00 +27°C° 0 mm 5 mps 704 mmHg 55%
    12:00 +27°C° 0 mm 6 mps 704 mmHg 54%
    13:00 +28°C° 0 mm 6 mps 705 mmHg 53%
    14:00 +27°C° 0 mm 6 mps 704 mmHg 55%
    15:00 +27°C° 0 mm 6 mps 704 mmHg 57%
    16:00 +27°C° 0 mm 5 mps 704 mmHg 58%
    17:00 +25°C° 0 mm 4 mps 704 mmHg 64%
    18:00 +24°C° 0 mm 3 mps 704 mmHg 69%
    19:00 +23°C° 0 mm 2 mps 704 mmHg 74%
    20:00 +21°C° 0 mm 2 mps 704 mmHg 78%
    21:00 +21°C° 0 mm 1 mps 704 mmHg 81%
    22:00 +19°C° 0 mm 1 mps 704 mmHg 85%
    23:00 +19°C° 0 mm 1 mps 704 mmHg 83%

    Tomorrow, 26 June, Wednesday

    Time Temperature Precipitation Wind Pressure Humidity
    00:00 +19°C° 0 mm 1 mps 704 mmHg 82%
    01:00 +19°C° 0 mm 1 mps 704 mmHg 80%
    02:00 +19°C° 0 mm 1 mps 704 mmHg 79%
    03:00 +19°C° 0 mm 1 mps 703 mmHg 77%
    04:00 +19°C° 0 mm 1 mps 703 mmHg 76%
    05:00 +20°C° 0 mm 1 mps 704 mmHg 71%
    06:00 +21°C° 0 mm 2 mps 704 mmHg 66%
    07:00 +24°C° 0 mm 2 mps 705 mmHg 61%
    08:00 +25°C° 0 mm 2 mps 705 mmHg 59%
    09:00 +26°C° 0 mm 3 mps 705 mmHg 56%
    10:00 +28°C° 0 mm 4 mps 706 mmHg 54%
    11:00 +28°C° 0 mm 4 mps 706 mmHg 53%
    12:00 +29°C° 0 mm 5 mps 706 mmHg 52%
    13:00 +29°C° 0 mm 5 mps 706 mmHg 51%
    14:00 +29°C° 0.1 mm 5 mps 705 mmHg 53%
    15:00 +28°C° 0.1 mm 5 mps 705 mmHg 55%
    16:00 +28°C° 0.1 mm 5 mps 705 mmHg 57%
    17:00 +27°C° 0 mm 4 mps 704 mmHg 61%
    18:00 +25°C° 0 mm 3 mps 704 mmHg 66%
    19:00 +24°C° 0 mm 2 mps 704 mmHg 70%
    20:00 +23°C° 0 mm 2 mps 704 mmHg 72%
    21:00 +22°C° 0 mm 1 mps 704 mmHg 75%
    22:00 +21°C° 0 mm 1 mps 704 mmHg 77%
    23:00 +21°C° 0 mm 1 mps 704 mmHg 76%

    Day after tomorrow, 27 June, Thursday

    Time Temperature Precipitation Wind Pressure Humidity
    00:00 +21°C° 0 mm 1 mps 703 mmHg 75%
    01:00 +20°C° 0 mm 1 mps 703 mmHg 73%
    02:00 +20°C° 0 mm 1 mps 703 mmHg 73%
    03:00 +20°C° 0 mm 1 mps 703 mmHg 72%
    04:00 +20°C° 0 mm 1 mps 703 mmHg 72%
    05:00 +21°C° 0 mm 2 mps 703 mmHg 68%
    06:00 +23°C° 0 mm 2 mps 703 mmHg 64%
    07:00 +25°C° 0 mm 2 mps 703 mmHg 60%
    08:00 +26°C° 0 mm 3 mps 704 mmHg 57%
    09:00 +28°C° 0 mm 3 mps 704 mmHg 54%
    10:00 +29°C° 0 mm 4 mps 704 mmHg 50%
    11:00 +30°C° 0 mm 4 mps 704 mmHg 47%
    12:00 +32°C° 0 mm 4 mps 704 mmHg 44%
    13:00 +32°C° 0 mm 5 mps 704 mmHg 41%
    14:00 +32°C° 0 mm 4 mps 703 mmHg 41%
    15:00 +32°C° 0 mm 4 mps 703 mmHg 42%
    16:00 +32°C° 0 mm 4 mps 703 mmHg 43%
    17:00 +29°C° 0 mm 3 mps 702 mmHg 50%
    18:00 +27°C° 0 mm 2 mps 702 mmHg 58%
    19:00 +25°C° 0 mm 1 mps 701 mmHg 65%
    20:00 +24°C° 0 mm 1 mps 701 mmHg 70%
    21:00 +22°C° 0 mm 1 mps 701 mmHg 74%
    22:00 +21°C° 0 mm 1 mps 700 mmHg 78%
    23:00 +21°C° 0 mm 1 mps 700 mmHg 74%

    28 June, Friday

    Time Temperature Precipitation Wind Pressure Humidity
    00:00 +21°C° 0 mm 1 mps 700 mmHg 70%
    01:00 +21°C° 0 mm 1 mps 700 mmHg 66%
    02:00 +21°C° 0 mm 1 mps 699 mmHg 62%
    03:00 +21°C° 0 mm 1 mps 699 mmHg 57%
    04:00 +21°C° 0 mm 1 mps 699 mmHg 53%
    05:00 +22°C° 0 mm 1 mps 699 mmHg 52%
    06:00 +24°C° 0 mm 1 mps 700 mmHg 51%
    07:00 +26°C° 0 mm 1 mps 700 mmHg 50%
    08:00 +28°C° 0 mm 2 mps 700 mmHg 47%
    09:00 +29°C° 0 mm 2 mps 701 mmHg 44%
    10:00 +31°C° 0 mm 2 mps 701 mmHg 40%
    11:00 +31°C° 0 mm 3 mps 701 mmHg 40%
    12:00 +33°C° 0 mm 4 mps 701 mmHg 40%
    13:00 +33°C° 0 mm 4 mps 701 mmHg 40%
    14:00 +32°C° 0 mm 4 mps 701 mmHg 42%
    15:00 +32°C° 0 mm 5 mps 700 mmHg 43%
    16:00 +30°C° 0 mm 5 mps 700 mmHg 44%
    17:00 +28°C° 0 mm 4 mps 700 mmHg 47%
    18:00 +26°C° 0 mm 3 mps 700 mmHg 50%
    19:00 +24°C° 0 mm 1 mps 700 mmHg 53%
    20:00 +23°C° 0 mm 2 mps 700 mmHg 54%
    21:00 +21°C° 0 mm 2 mps 700 mmHg 55%
    22:00 +20°C° 0 mm 2 mps 700 mmHg 56%
    23:00 +19°C° 0 mm 2 mps 700 mmHg 57%

    29 June, Saturday

    Time Temperature Precipitation Wind Pressure Humidity
    00:00 +19°C° 0 mm 2 mps 700 mmHg 58%
    01:00 +18°C° 0 mm 2 mps 700 mmHg 59%
    02:00 +17°C° 0 mm 2 mps 699 mmHg 59%
    03:00 +17°C° 0 mm 2 mps 699 mmHg 59%
    04:00 +16°C° 0 mm 2 mps 699 mmHg 59%
    05:00 +18°C° 0 mm 3 mps 699 mmHg 55%
    06:00 +19°C° 0 mm 3 mps 700 mmHg 52%
    07:00 +20°C° 0 mm 3 mps 700 mmHg 49%
    08:00 +22°C° 0 mm 4 mps 701 mmHg 46%
    09:00 +23°C° 0 mm 5 mps 701 mmHg 42%
    10:00 +26°C° 0 mm 6 mps 702 mmHg 39%
    11:00 +26°C° 0 mm 6 mps 702 mmHg 39%
    12:00 +27°C° 0 mm 7 mps 702 mmHg 39%
    13:00 +27°C° 0 mm 7 mps 702 mmHg 40%
    14:00 +27°C° 0 mm 6 mps 702 mmHg 40%
    15:00 +26°C° 0 mm 6 mps 702 mmHg 41%
    16:00 +26°C° 0 mm 6 mps 701 mmHg 41%
    17:00 +23°C° 0 mm 4 mps 701 mmHg 48%
    18:00 +21°C° 0 mm 3 mps 701 mmHg 54%
    19:00 +20°C° 0 mm 2 mps 701 mmHg 60%
    20:00 +18°C° 0 mm 2 mps 701 mmHg 62%
    21:00 +17°C° 0 mm 2 mps 701 mmHg 64%
    22:00 +16°C° 0 mm 1 mps 701 mmHg 66%
    23:00 +16°C° 0 mm 1 mps 701 mmHg 65%

    30 June, Sunday

    Time Temperature Precipitation Wind Pressure Humidity
    00:00 +16°C° 0 mm 1 mps 701 mmHg 63%
    01:00 +15°C° 0 mm 1 mps 701 mmHg 62%
    02:00 +15°C° 0 mm 1 mps 701 mmHg 63%
    03:00 +15°C° 0 mm 1 mps 700 mmHg 63%
    04:00 +15°C° 0 mm 1 mps 700 mmHg 64%
    05:00 +18°C° 0 mm 1 mps 701 mmHg 60%
    06:00 +20°C° 0 mm 1 mps 701 mmHg 57%
    07:00 +22°C° 0 mm 1 mps 702 mmHg 54%
    08:00 +23°C° 0 mm 2 mps 702 mmHg 50%
    09:00 +25°C° 0 mm 2 mps 703 mmHg 46%
    10:00 +26°C° 0 mm 3 mps 703 mmHg 42%
    11:00 +27°C° 0 mm 3 mps 704 mmHg 40%
    12:00 +28°C° 0 mm 3 mps 704 mmHg 38%
    13:00 +29°C° 0 mm 3 mps 704 mmHg 35%
    14:00 +29°C° 0 mm 3 mps 704 mmHg 36%
    15:00 +29°C° 0 mm 3 mps 704 mmHg 37%
    16:00 +29°C° 0 mm 3 mps 703 mmHg 38%
    17:00 +27°C° 0 mm 2 mps 703 mmHg 44%
    18:00 +25°C° 0 mm 2 mps 703 mmHg 51%
    19:00 +23°C° 0 mm 1 mps 702 mmHg 58%
    20:00 +22°C° 0 mm 1 mps 702 mmHg 62%
    21:00 +20°C° 0 mm 1 mps 702 mmHg 66%
    22:00 +16°C° 0 mm 0 mps 702 mmHg 70%
    23:00 +16°C° 0 mm 0 mps 702 mmHg 70%
    Show more